Home   Weather   Wardha   Past weeks

Flag for India Past Weather in Wardha, Maharashtra, India — Yesterday and Last 2 Weeks

Now
57 °F

Haze.


Feels Like: 57 °F
Forecast: 62 / 85 °F
Wind: No wind

Location: Nagpur Sonegaon

Current Time: Jan 17, 2017 at 6:47:51 am

Latest Report: Jan 17, 2017 at 5:30 am


Visibility: 2 mi

Pressure: 29.98 "Hg

Humidity: 82%

Dew Point: 52 °F

Location of WardhaLocation

Past Weather in Wardha — Graph

°F

Wardha Temperature Yesterday

Maximum temperature yesterday: 84 °F (at 1:30 pm)
Minimum temperature yesterday: 55 °F (at 7:00 am)
Average temperature yesterday: 69 °F

High & Low Weather Summary for the Past Weeks

 TemperatureHumidityPressure
High91 °F (Jan 2, 2:00 pm)100% (Jan 9, 6:32 am)30.12 "Hg (Jan 9, 6:32 am)
Low50 °F (Jan 5, 7:00 am)17% (Jan 4, 4:30 pm)29.80 "Hg (Jan 7, 3:30 pm)
Average69 °F56%29.97 "Hg
* Reported Jan 2 5:30 am — Jan 17 5:30 am, Wardha, Weather by CustomWeather, © 2017

Note: Actual official high and low records may vary slightly from our data, if they occured in-between our weather recording intervals... More about our weather records

Advertising

Wardha Weather History for the Previous 24 Hours

Scroll right to see more
 ConditionsComfort  
Time TempWeatherWind HumidityBarometerVisibility
5:30 am
Tue, Jan 17
57 °FHaze.No wind82%29.98 "Hg2 mi
4:00 am57 °FHaze.No wind77%29.98 "Hg2 mi
3:00 am57 °FHaze.No wind77%29.98 "Hg2 mi
2:30 am57 °FHaze.No wind77%29.98 "Hg2 mi
2:00 am57 °FHaze.No wind72%29.98 "Hg2 mi
1:30 am59 °FHaze.2 mph68%29.98 "Hg2 mi
1:00 am59 °FHaze.No wind63%29.98 "Hg2 mi
12:30 am59 °FHaze.2 mph68%29.98 "Hg2 mi
12:00 am61 °FHaze.2 mph63%30.01 "Hg2 mi
11:30 pm
Mon, Jan 16
61 °FHaze.2 mph68%30.01 "Hg2 mi
11:00 pm59 °FHaze.No wind68%30.01 "Hg2 mi
10:30 pm63 °FHaze.No wind64%30.01 "Hg2 mi
10:00 pm63 °FHaze.No wind64%30.01 "Hg2 mi
9:30 pm63 °FHaze.No wind64%30.04 "Hg2 mi
9:00 pm64 °FHaze.No wind60%30.04 "Hg2 mi
8:30 pm66 °FHaze.No wind56%30.01 "Hg2 mi
8:00 pm70 °FHaze.No wind46%30.01 "Hg2 mi
7:30 pm70 °FHaze.No wind46%30.01 "Hg2 mi
7:00 pm73 °FHaze.2 mph38%30.01 "Hg2 mi
6:30 pm75 °FHaze.2 mph36%29.98 "Hg2 mi
6:00 pm75 °FHaze.2 mph36%29.98 "Hg2 mi
5:30 pm79 °FHaze.2 mph32%29.98 "Hg2 mi
3:30 pm84 °FHaze.3 mph25%29.95 "Hg3 mi
3:00 pm84 °FHaze.3 mph27%29.98 "Hg2 mi
2:30 pm84 °FHaze.5 mph25%29.98 "Hg2 mi
2:00 pm84 °FHaze.3 mph25%29.98 "Hg2 mi
1:30 pm84 °FHaze.5 mph25%30.01 "Hg2 mi
12:30 pm82 °FHaze.5 mph30%30.04 "Hg2 mi
12:00 pm81 °FHaze.2 mph32%30.07 "Hg1 mi
11:30 am79 °FHaze.5 mph34%30.07 "Hg1 mi
11:00 am77 °FHaze.5 mph36%30.09 "Hg1 mi
10:30 am75 °FHaze.1 mph39%30.09 "Hg1 mi
10:00 am73 °FHaze.2 mph41%30.09 "Hg1 mi
9:30 am70 °FHaze.1 mph50%30.09 "Hg1 mi
8:30 am64 °FHaze.No wind60%30.09 "Hg1 mi
8:00 am59 °FHaze.No wind68%30.07 "Hg1 mi
7:30 am55 °FHaze.No wind72%30.07 "Hg1 mi
7:00 am55 °FHaze.No wind67%30.04 "Hg1 mi
6:30 am59 °FHaze.3 mph68%30.04 "Hg1 mi
Weather by CustomWeather, © 2017

See weather overviewHow to use our weather pages